Flag for U.S.A. Weather past 2 weeks in Alexandria, Virginia, U.S.A.

Now
37 °F

Partly sunny.


Feels Like: 27 °F
Forecast: 31 / 39 °F
Wind: 18 mph from Northwest

Location: Reagan National Airport

Current Time: Mar 28, 2015 at 6:29:31 PM

Latest Report: Mar 28, 2015 at 4:52 PM


Visibility: 10 mi

Pressure: 30.07 "Hg

Humidity: 36%

Dew point: 12 °F

Location of AlexandriaLocation

Historic Weather in Alexandria — Graph

°F

Alexandria temperature yesterday

Maximum temperature yesterday: 52 °F (at 12:52 AM)
Minimum temperature yesterday: 44 °F (at 5:52 AM)
Average temperature yesterday: 48 °F

Past Weeks' High & Low Weather Summary

 TemperatureHumidityPressure
High76 °F (Mar 26, 5:52 PM)90% (Mar 14, 3:52 AM)30.43 "Hg (Mar 14, 3:52 AM)
Low32 °F (Mar 28, 7:52 AM)17% (Mar 18, 4:52 PM)29.59 "Hg (Mar 26, 5:52 PM)
Average47 °F53%30.08 "Hg
* Reported Mar 13 4:52 PM — Mar 28 4:52 PM, Alexandria, Weather by CustomWeather, © 2015

Note: Actual official high and low records may vary slightly from our data, if they occured in-between our weather recording intervals... More about our weather records

Advertising

Alexandria weather history for previous 24 hours

 ConditionsComfort  
Time TempWeatherWind HumidityBarometerVisibility
4:52 PM
Sat, Mar 28
37 °FPartly sunny.18 mph36%30.07 "Hg10 mi
3:52 PM36 °FPartly sunny.14 mph35%30.05 "Hg10 mi
2:52 PM37 °FOvercast.16 mph36%30.04 "Hg10 mi
1:52 PM38 °FPartly sunny.15 mph36%30.03 "Hg10 mi
12:52 PM37 °FPartly sunny.15 mph34%30.02 "Hg10 mi
11:52 AM36 °FScattered clouds.20 mph34%30.02 "Hg10 mi
10:52 AM35 °FScattered clouds.18 mph31%30.02 "Hg10 mi
9:52 AM34 °FScattered clouds.17 mph34%30.02 "Hg10 mi
8:52 AM34 °FPassing clouds.17 mph37%29.99 "Hg10 mi
7:52 AM32 °FPassing clouds.17 mph47%29.98 "Hg10 mi
6:52 AM34 °FPassing clouds.14 mph48%29.94 "Hg10 mi
5:52 AM36 °FOvercast.16 mph46%29.91 "Hg10 mi
4:52 AM37 °FOvercast.15 mph46%29.88 "Hg10 mi
3:52 AM37 °FOvercast.16 mph54%29.88 "Hg10 mi
2:52 AM39 °FOvercast.13 mph50%29.88 "Hg10 mi
1:52 AM40 °FPassing clouds.18 mph51%29.86 "Hg10 mi
12:52 AM42 °FPassing clouds.21 mph49%29.85 "Hg10 mi
11:52 PM
Fri, Mar 27
44 °FPassing clouds.16 mph47%29.83 "Hg10 mi
10:52 PM46 °FPartly cloudy.17 mph44%29.84 "Hg10 mi
9:52 PM47 °FOvercast.16 mph44%29.83 "Hg10 mi
8:52 PM49 °FOvercast.13 mph46%29.81 "Hg10 mi
7:52 PM49 °FOvercast.8 mph41%29.81 "Hg10 mi
6:52 PM50 °FPartly sunny.12 mph39%29.78 "Hg10 mi
Weather by CustomWeather, © 2015

See weather overviewHow to use our weather pages